Regional Weather Roundup
Issued by NWS

Home | Current Version | Previous Version | Graphics & Text | Print | Product List | Glossary On
Versions: 1 2 3 4 5 6 7 8 9 10 11 12 13 14 15 16 17 18 19 20 21 22 23 24 25 26 27 28 29 30 31 32 33 34 35 36 37 38 39 40 41 42 43 44 45 46 47 48 49 50
000
ASUS43 KIND 150659
RWRIN

WEATHER ROUNDUP FOR INDIANA
NATIONAL WEATHER SERVICE INDIANAPOLIS IN
300 AM EDT MON SEP 15 2014

NOTE: "FAIR" INDICATES FEW OR NO CLOUDS BELOW 12,000 FEET WITH NO
SIGNIFICANT WEATHER AND/OR OBSTRUCTIONS TO VISIBILITY.

* - STATION DOES NOT REPORT WEATHER SUCH AS PRECIPITATION OR FOG.

+ - STATION NOT QUALITY CONTROLLED BY THE NATIONAL WEATHER SERVICE.
    USE DATA WITH CAUTION...ESPECIALLY DEWPOINT AND RELATIVE
    HUMIDITY OBSERVATIONS.

INZ001>003-010>013-019-020-150800-
NORTHWEST INDIANA

CITY           SKY/WX    TMP DP  RH WIND       PRES   REMARKS
VALPARAISO     CLEAR     46  44  93 CALM      30.20S

$$

LMZ046-743>745-150800-
SOUTHERN LAKE MICHIGAN

STATION/POSITION TIME  TEMP WIND        PRES
                       AIR  DIR/SP/G
                 (UTC) (F)  (DEG/KT/KT) (MB)
MICHIGAN CITY    0600   55  140/  8/  9   N/A

$$

INZ004-005-014>016-021>024-150800-
NORTH CENTRAL INDIANA

CITY           SKY/WX    TMP DP  RH WIND       PRES   REMARKS
GOSHEN         CLEAR     46  43  89 CALM      30.20S
SOUTH BEND     CLEAR     47  44  90 CALM      30.20S

$$

INZ006>009-017-018-025>027-150800-
NORTHEAST INDIANA

CITY           SKY/WX    TMP DP  RH WIND       PRES   REMARKS
ANGOLA *+      CLEAR     45  45 100 CALM      30.21S
FORT WAYNE     PTCLDY    47  45  93 CALM      30.22R

$$

INZ028-029-035-036-043>045-051>053-150800-
WEST CENTRAL INDIANA

CITY           SKY/WX    TMP DP  RH WIND       PRES   REMARKS
GREENCASTLE +  CLEAR     46  46 100 CALM      30.21S
LAFAYETTE      PTCLDY    47  46  97 CALM      30.20S
TERRE HAUTE    CLEAR     46  44  93 CALM      30.21R

$$

INZ030>032-037>040-046>048-054>057-064-065-150800-
CENTRAL INDIANA

CITY           SKY/WX    TMP DP  RH WIND       PRES   REMARKS
INDIANAPOLIS   CLEAR     53  47  79 CALM      30.20R
-EAGLE CREEK   CLEAR     50  47  89 CALM      30.20R
KOKOMO *+      PTCLDY    46  43  87 CALM      30.21S
MT COMFORT *+  CLEAR     46 N/A N/A CALM      30.21R
SHELBYVILLE    CLEAR     49  45  86 CALM      30.20S

$$

INZ033-034-041-042-049-050-058-059-150800-
EAST CENTRAL INDIANA

CITY           SKY/WX    TMP DP  RH WIND       PRES   REMARKS
MUNCIE         CLEAR     46  44  93 NW3       30.21S

$$

INZ060-061-067>069-081>083-085>088-150800-
SOUTHWEST INDIANA

CITY           SKY/WX    TMP DP  RH WIND       PRES   REMARKS
EVANSVILLE     CLEAR     53  50  89 CALM      30.20S

$$

INZ062-063-066-070>080-084-089>092-150800-
SOUTH CENTRAL AND SOUTHEAST INDIANA

CITY           SKY/WX    TMP DP  RH WIND       PRES   REMARKS
BLOOMINGTON    CLEAR     45  44  97 CALM      30.20S

$$



USA.gov is the U.S. government's official web portal to all federal, state and local government web resources and services.